^^
 
Daily Summary for May 14, 2021 Units:  English    Metric   Both
Daily Weekly Monthly Yearly Custom
  Current: High: Low: Average:
Temperature: 84.6 °F 84.6 °F 55.5 °F 67.6 °F
Dew Point: 48.8 °F 49.6 °F 33.9 °F 42.8 °F
Humidity: 29% 56% 28% 42%
Wind Speed: 9mph 18mph 0mph 3.1mph
Wind Gust: 7mph 17mph - -
WindSouth - - SE
Pressure: 29.9 in 30.0 in 29.9 in -
Precipitation: 0.000 in      
Historical Graphs
 
 
Tabular Data for May 14, 2021
Time Temperature Dew Point Pressure Wind Wind Speed Wind Gust Humidity Rainfall Rate (Hourly) solar
00:04 60.9 °F 42.5 °F 30.0 in Calm     51% 0.000 in 0.00 W/m2
00:09 60.8 °F 43.0 °F 30.0 in Calm     52% 0.000 in 0.00 W/m2
00:14 60.6 °F 43.3 °F 30.0 in Calm     53% 0.000 in 0.00 W/m2
00:19 60.5 °F 43.3 °F 30.0 in Calm     53% 0.000 in 0.00 W/m2
00:24 60.3 °F 43.1 °F 30.0 in Calm     53% 0.000 in 0.00 W/m2
00:29 60.1 °F 43.2 °F 30.0 in Calm     54% 0.000 in 0.00 W/m2
00:34 59.9 °F 43.6 °F 30.0 in Calm     55% 0.000 in 0.00 W/m2
00:39 59.7 °F 43.4 °F 30.0 in Calm     55% 0.000 in 0.00 W/m2
00:44 59.5 °F 42.8 °F 30.0 in Calm     54% 0.000 in 0.00 W/m2
00:49 59.3 °F 43.1 °F 30.0 in Calm     55% 0.000 in 0.00 W/m2
00:54 59.2 °F 42.5 °F 30.0 in Calm     54% 0.000 in 0.00 W/m2
00:59 59.0 °F 42.4 °F 30.0 in Calm     54% 0.000 in 0.00 W/m2
01:04 58.9 °F 42.7 °F 30.0 in Calm     55% 0.000 in 0.00 W/m2
01:09 58.7 °F 42.9 °F 30.0 in Calm     56% 0.000 in 0.00 W/m2
01:14 58.6 °F 42.8 °F 30.0 in Calm     56% 0.000 in 0.00 W/m2
01:19 58.5 °F 42.8 °F 30.0 in Calm     56% 0.000 in 0.00 W/m2
01:24 58.4 °F 42.2 °F 30.0 in Calm     55% 0.000 in 0.00 W/m2
01:29 58.2 °F 42.1 °F 30.0 in Calm     55% 0.000 in 0.00 W/m2
01:34 58.1 °F 41.5 °F 30.0 in Calm     54% 0.000 in 0.00 W/m2
01:39 57.9 °F 41.3 °F 30.0 in Calm     54% 0.000 in 0.00 W/m2
01:44 57.8 °F 41.6 °F 30.0 in Calm     55% 0.000 in 0.00 W/m2
01:49 57.7 °F 42.1 °F 30.0 in Calm     56% 0.000 in 0.00 W/m2
01:54 57.6 °F 42.0 °F 30.0 in Calm     56% 0.000 in 0.00 W/m2
01:59 57.5 °F 41.4 °F 30.0 in Calm     55% 0.000 in 0.00 W/m2
02:04 57.4 °F 41.4 °F 30.0 in Calm     55% 0.000 in 0.00 W/m2
02:09 57.4 °F 41.3 °F 30.0 in Calm     55% 0.000 in 0.00 W/m2
02:14 57.3 °F 41.2 °F 30.0 in Calm     55% 0.000 in 0.00 W/m2
02:19 57.2 °F 41.1 °F 30.0 in Calm     55% 0.000 in 0.00 W/m2
02:24 57.1 °F 40.6 °F 30.0 in Calm     54% 0.000 in 0.00 W/m2
02:29 57.0 °F 40.5 °F 30.0 in Calm     54% 0.000 in 0.00 W/m2
02:34 56.9 °F 40.4 °F 30.0 in Calm     54% 0.000 in 0.00 W/m2
02:39 56.8 °F 40.3 °F 30.0 in Calm     54% 0.000 in 0.00 W/m2
02:44 56.7 °F 40.1 °F 30.0 in Calm     54% 0.000 in 0.00 W/m2
02:49 56.6 °F 40.1 °F 30.0 in Calm     54% 0.000 in 0.00 W/m2
02:54 56.5 °F 40.5 °F 30.0 in Calm     55% 0.000 in 0.00 W/m2
02:59 56.4 °F 40.0 °F 30.0 in Calm     54% 0.000 in 0.00 W/m2
03:04 56.3 °F 40.3 °F 30.0 in Calm     55% 0.000 in 0.00 W/m2
03:09 56.2 °F 39.8 °F 30.0 in Calm     54% 0.000 in 0.00 W/m2
03:14 56.1 °F 39.2 °F 30.0 in Calm     53% 0.000 in 0.00 W/m2
03:19 56.0 °F 39.1 °F 30.0 in Calm     53% 0.000 in 0.00 W/m2
03:24 55.8 °F 39.3 °F 30.0 in Calm     54% 0.000 in 0.00 W/m2
03:29 55.7 °F 39.3 °F 30.0 in Calm     54% 0.000 in 0.00 W/m2
03:34 55.7 °F 38.8 °F 30.0 in Calm     53% 0.000 in 0.00 W/m2
03:39 55.6 °F 38.2 °F 30.0 in Calm     52% 0.000 in 0.00 W/m2
03:44 55.5 °F 37.1 °F 30.0 in NNE 2 mph 1 mph 50% 0.000 in 0.00 W/m2
03:49 55.5 °F 37.1 °F 30.0 in NNE 2 mph 2 mph 50% 0.000 in 0.00 W/m2
03:54 55.7 °F 37.2 °F 30.0 in Calm   2 mph 50% 0.000 in 0.00 W/m2
03:59 55.7 °F 36.8 °F 30.0 in Calm     49% 0.000 in 0.00 W/m2
04:04 55.8 °F 37.4 °F 30.0 in Calm     50% 0.000 in 0.00 W/m2
04:09 56.0 °F 37.0 °F 29.9 in Calm     49% 0.000 in 0.00 W/m2
04:14 56.1 °F 36.7 °F 29.9 in Calm     48% 0.000 in 0.00 W/m2
04:19 56.3 °F 36.8 °F 29.9 in Calm     48% 0.000 in 0.00 W/m2
04:24 56.4 °F 36.4 °F 29.9 in Calm     47% 0.000 in 0.00 W/m2
04:29 56.6 °F 36.9 °F 29.9 in NNE 2 mph 1 mph 48% 0.000 in 0.00 W/m2
04:34 56.8 °F 36.0 °F 29.9 in NNE 2 mph 2 mph 46% 0.000 in 0.00 W/m2
04:39 57.0 °F 36.3 °F 29.9 in Calm     46% 0.000 in 0.00 W/m2
04:44 57.1 °F 35.9 °F 29.9 in Calm     45% 0.000 in 0.00 W/m2
04:49 57.2 °F 35.5 °F 29.9 in Calm     44% 0.000 in 0.00 W/m2
04:54 57.3 °F 35.6 °F 29.9 in Calm     44% 0.000 in 0.00 W/m2
04:59 57.4 °F 35.1 °F 29.9 in Calm     43% 0.000 in 0.00 W/m2
05:04 57.4 °F 35.1 °F 29.9 in North 2 mph 1 mph 43% 0.000 in 0.00 W/m2
05:09 57.5 °F 35.2 °F 29.9 in North 2 mph 2 mph 43% 0.000 in 0.00 W/m2
05:14 57.5 °F 35.2 °F 29.9 in Calm   2 mph 43% 0.000 in 0.00 W/m2
05:19 57.5 °F 36.9 °F 29.9 in Calm     46% 0.000 in 0.00 W/m2
05:24 57.6 °F 37.0 °F 29.9 in Calm     46% 0.000 in 0.00 W/m2
05:29 57.5 °F 37.4 °F 29.9 in Calm     47% 0.000 in 0.00 W/m2
05:34 57.5 °F 37.4 °F 29.9 in Calm     47% 0.000 in 0.00 W/m2
05:39 57.4 °F 37.2 °F 29.9 in Calm     47% 0.000 in 0.00 W/m2
05:44 57.3 °F 36.7 °F 29.9 in Calm     46% 0.000 in 0.00 W/m2
05:49 57.2 °F 36.0 °F 29.9 in Calm     45% 0.000 in 0.00 W/m2
05:54 57.1 °F 35.9 °F 29.9 in Calm     45% 0.000 in 0.00 W/m2
05:59 56.9 °F 35.2 °F 29.9 in North 2 mph   44% 0.000 in 0.00 W/m2
06:04 56.7 °F 35.0 °F 29.9 in North 2 mph 2 mph 44% 0.000 in 5.00 W/m2
06:09 56.6 °F 34.8 °F 30.0 in Calm     44% 0.000 in 5.00 W/m2
06:14 56.4 °F 34.7 °F 30.0 in Calm     44% 0.000 in 7.00 W/m2
06:19 56.3 °F 34.1 °F 30.0 in Calm     43% 0.000 in 7.00 W/m2
06:24 56.2 °F 34.0 °F 30.0 in Calm     43% 0.000 in 9.00 W/m2
06:29 56.1 °F 33.9 °F 30.0 in Calm     43% 0.000 in 11.00 W/m2
06:34 56.1 °F 34.5 °F 30.0 in North 2 mph 1 mph 44% 0.000 in 11.00 W/m2
06:39 56.1 °F 34.5 °F 30.0 in Calm   2 mph 44% 0.000 in 12.00 W/m2
06:44 56.1 °F 35.0 °F 30.0 in Calm     45% 0.000 in 12.00 W/m2
06:49 56.1 °F 35.0 °F 30.0 in Calm     45% 0.000 in 14.00 W/m2
06:54 56.2 °F 35.6 °F 30.0 in Calm     46% 0.000 in 16.00 W/m2
06:59 56.2 °F 35.7 °F 30.0 in Calm     46% 0.000 in 16.00 W/m2
07:04 56.4 °F 36.9 °F 30.0 in Calm     48% 0.000 in 18.00 W/m2
07:09 56.4 °F 36.9 °F 30.0 in Calm     48% 0.000 in 18.00 W/m2
07:14 56.5 °F 37.6 °F 30.0 in Calm     49% 0.000 in 19.00 W/m2
07:19 56.6 °F 37.6 °F 30.0 in Calm     49% 0.000 in 19.00 W/m2
07:24 56.7 °F 38.3 °F 30.0 in Calm     50% 0.000 in 21.00 W/m2
07:29 56.8 °F 38.3 °F 30.0 in Calm     50% 0.000 in 21.00 W/m2
07:34 56.8 °F 38.3 °F 30.0 in Calm     50% 0.000 in 23.00 W/m2
07:39 56.9 °F 39.4 °F 30.0 in Calm     52% 0.000 in 25.00 W/m2
07:44 57.2 °F 40.2 °F 30.0 in Calm     53% 0.000 in 28.00 W/m2
07:49 57.6 °F 41.4 °F 30.0 in Calm     55% 0.000 in 37.00 W/m2
07:54 57.8 °F 41.7 °F 30.0 in Calm     55% 0.000 in 33.00 W/m2
07:59 58.1 °F 42.5 °F 30.0 in Calm     56% 0.000 in 47.00 W/m2
08:04 58.5 °F 42.8 °F 30.0 in SE 2 mph   56% 0.000 in 248.00 W/m2
08:09 59.2 °F 43.0 °F 30.0 in SE 2 mph 2 mph 56% 0.000 in 420.00 W/m2
08:14 59.6 °F 43.5 °F 30.0 in SE 2 mph 2 mph 56% 0.000 in 336.00 W/m2
08:19 60.4 °F 43.2 °F 30.0 in SE 2 mph 2 mph 53% 0.000 in 410.00 W/m2
08:24 61.0 °F 43.6 °F 30.0 in SE 2 mph 2 mph 53% 0.000 in 281.00 W/m2
08:29 61.7 °F 43.9 °F 30.0 in Calm   2 mph 52% 0.000 in 485.00 W/m2
08:34 62.3 °F 44.2 °F 30.0 in SE 2 mph   52% 0.000 in 445.00 W/m2
08:39 63.2 °F 44.2 °F 30.0 in Calm   2 mph 51% 0.000 in 243.00 W/m2
08:44 63.9 °F 44.5 °F 30.0 in Calm     50% 0.000 in 243.00 W/m2
08:49 64.5 °F 44.9 °F 30.0 in Calm     49% 0.000 in 566.00 W/m2
08:54 64.9 °F 44.9 °F 30.0 in Calm     49% 0.000 in 584.00 W/m2
08:59 65.7 °F 45.5 °F 30.0 in SE 2 mph   49% 0.000 in 599.00 W/m2
09:04 66.3 °F 45.4 °F 30.0 in SE 2 mph 2 mph 48% 0.000 in 615.00 W/m2
09:09 66.9 °F 45.4 °F 30.0 in SE 2 mph 2 mph 46% 0.000 in 629.00 W/m2
09:14 67.4 °F 46.5 °F 30.0 in SE 2 mph 2 mph 47% 0.000 in 645.00 W/m2
09:19 67.8 °F 46.8 °F 30.0 in Calm   2 mph 47% 0.000 in 663.00 W/m2
09:24 68.1 °F 47.6 °F 30.0 in Calm     48% 0.000 in 673.00 W/m2
09:29 68.5 °F 47.4 °F 30.0 in Calm     47% 0.000 in 684.00 W/m2
09:34 69.0 °F 47.5 °F 30.0 in SE 2 mph   47% 0.000 in 700.00 W/m2
09:39 69.7 °F 47.3 °F 30.0 in SE 2 mph 2 mph 45% 0.000 in 719.00 W/m2
09:44 70.3 °F 48.7 °F 30.0 in SE 2 mph 2 mph 47% 0.000 in 735.00 W/m2
09:49 70.8 °F 48.2 °F 30.0 in Calm   2 mph 45% 0.000 in 751.00 W/m2
09:54 71.3 °F 48.7 °F 30.0 in SE 2 mph   45% 0.000 in 759.00 W/m2
09:59 71.9 °F 48.6 °F 30.0 in SE 2 mph 2 mph 44% 0.000 in 782.00 W/m2
10:04 72.5 °F 48.3 °F 30.0 in SSE 2 mph 2 mph 43% 0.000 in 802.00 W/m2
10:09 72.9 °F 47.7 °F 30.0 in SSE 2 mph 2 mph 41% 0.000 in 807.00 W/m2
10:14 73.4 °F 48.3 °F 30.0 in South 2 mph 2 mph 41% 0.000 in 816.00 W/m2
10:19 73.7 °F 48.4 °F 30.0 in South 4 mph 2 mph 41% 0.000 in 807.00 W/m2
10:24 74.0 °F 48.1 °F 30.0 in SSE 2 mph 3 mph 40% 0.000 in 728.00 W/m2
10:29 74.2 °F 47.0 °F 30.0 in SE 4 mph 2 mph 38% 0.000 in 814.00 W/m2
10:34 74.7 °F 48.7 °F 30.0 in SE 4 mph 3 mph 40% 0.000 in 823.00 W/m2
10:39 75.0 °F 48.1 °F 30.0 in South 4 mph 2 mph 39% 0.000 in 837.00 W/m2
10:44 75.4 °F 45.6 °F 30.0 in South 4 mph 3 mph 35% 0.000 in 842.00 W/m2
10:49 75.7 °F 44.5 °F 30.0 in South 4 mph 3 mph 33% 0.000 in 881.00 W/m2
10:53 76.0 °F 44.0 °F 30.0 in South 4 mph 3 mph 32% 0.000 in 904.00 W/m2
10:59 76.3 °F 45.0 °F 30.0 in SSE 4 mph 3 mph 33% 0.000 in 925.00 W/m2
11:04 76.6 °F 44.5 °F 30.0 in South 2 mph 3 mph 32% 0.000 in 923.00 W/m2
11:09 76.9 °F 44.8 °F 30.0 in South 6 mph 2 mph 32% 0.000 in 923.00 W/m2
11:14 77.3 °F 44.1 °F 30.0 in SSE 6 mph 6 mph 31% 0.000 in 926.00 W/m2
11:19 77.5 °F 43.6 °F 30.0 in SSW 4 mph 6 mph 30% 0.000 in 932.00 W/m2
11:24 77.8 °F 43.9 °F 30.0 in South 6 mph 3 mph 30% 0.000 in 937.00 W/m2
11:29 78.1 °F 44.1 °F 30.0 in SSE 2 mph 6 mph 30% 0.000 in 949.00 W/m2
11:34 78.5 °F 46.0 °F 30.0 in South 7 mph 3 mph 32% 0.000 in 958.00 W/m2
11:39 78.8 °F 45.5 °F 30.0 in SW 7 mph 7 mph 31% 0.000 in 958.00 W/m2
11:44 79.0 °F 44.9 °F 30.0 in South 7 mph 4 mph 30% 0.000 in 956.00 W/m2
11:49 79.1 °F 44.0 °F 30.0 in SSW 7 mph 7 mph 29% 0.000 in 937.00 W/m2
11:54 79.1 °F 44.1 °F 30.0 in SE 6 mph 7 mph 29% 0.000 in 937.00 W/m2
11:59 79.3 °F 43.4 °F 30.0 in South 6 mph 6 mph 28% 0.000 in 963.00 W/m2
12:04 79.4 °F 44.4 °F 30.0 in ESE 2 mph 3 mph 29% 0.000 in 958.00 W/m2
12:09 79.5 °F 44.5 °F 30.0 in SE 6 mph 3 mph 29% 0.000 in 988.00 W/m2
12:14 79.5 °F 43.5 °F 30.0 in SW 7 mph 6 mph 28% 0.000 in 988.00 W/m2
12:19 79.6 °F 45.3 °F 30.0 in South 7 mph 7 mph 30% 0.000 in 986.00 W/m2
12:24 80.0 °F 44.8 °F 30.0 in SSE 2 mph 7 mph 29% 0.000 in 988.00 W/m2
12:29 80.5 °F 44.4 °F 29.9 in SSE 4 mph 2 mph 28% 0.000 in 991.00 W/m2
12:34 80.8 °F 44.6 °F 29.9 in SSW 7 mph 7 mph 28% 0.000 in 1000.00 W/m2
12:39 80.9 °F 45.6 °F 29.9 in SSE 9 mph 7 mph 29% 0.000 in 1000.00 W/m2
12:44 80.9 °F 45.6 °F 29.9 in South 9 mph 9 mph 29% 0.000 in 997.00 W/m2
12:49 80.9 °F 45.7 °F 29.9 in South 6 mph 6 mph 29% 0.000 in 986.00 W/m2
12:54 81.0 °F 45.7 °F 29.9 in SSE 9 mph 6 mph 29% 0.000 in 998.00 W/m2
12:59 81.0 °F 44.7 °F 29.9 in South 4 mph 9 mph 28% 0.000 in 991.00 W/m2
13:04 81.0 °F 46.6 °F 29.9 in SE 11 mph 5 mph 30% 0.000 in 993.00 W/m2
13:09 81.0 °F 45.7 °F 29.9 in SE 6 mph 10 mph 29% 0.000 in 990.00 W/m2
13:14 81.0 °F 45.7 °F 29.9 in SSE 13 mph 7 mph 29% 0.000 in 988.00 W/m2
13:19 81.2 °F 45.9 °F 29.9 in SSE 9 mph 13 mph 29% 0.000 in 984.00 W/m2
13:24 81.4 °F 47.9 °F 29.9 in SSW 9 mph 9 mph 31% 0.000 in 983.00 W/m2
13:29 81.5 °F 47.9 °F 29.9 in SE 7 mph 9 mph 31% 0.000 in 979.00 W/m2
13:34 81.7 °F 47.2 °F 29.9 in SE 11 mph 7 mph 30% 0.000 in 974.00 W/m2
13:39 82.0 °F 47.4 °F 29.9 in ENE 4 mph 10 mph 30% 0.000 in 969.00 W/m2
13:44 82.0 °F 47.3 °F 29.9 in South 11 mph 5 mph 30% 0.000 in 965.00 W/m2
13:49 82.0 °F 47.5 °F 29.9 in SSW 6 mph 10 mph 30% 0.000 in 962.00 W/m2
13:54 82.4 °F 47.8 °F 29.9 in NW 7 mph 6 mph 30% 0.000 in 954.00 W/m2
13:59 82.5 °F 47.9 °F 29.9 in SE 7 mph 7 mph 30% 0.000 in 954.00 W/m2
14:04 82.8 °F 48.0 °F 29.9 in SSE 6 mph 7 mph 30% 0.000 in 946.00 W/m2
14:09 82.9 °F 48.3 °F 29.9 in SE 11 mph 6 mph 30% 0.000 in 939.00 W/m2
14:14 83.0 °F 46.5 °F 29.9 in SSE 7 mph 10 mph 28% 0.000 in 930.00 W/m2
14:19 83.1 °F 46.6 °F 29.9 in South 11 mph 7 mph 28% 0.000 in 925.00 W/m2
14:24 83.1 °F 47.5 °F 29.9 in SSE 4 mph 10 mph 29% 0.000 in 916.00 W/m2
14:29 83.3 °F 48.5 °F 29.9 in NE 6 mph 3 mph 30% 0.000 in 909.00 W/m2
14:34 83.4 °F 47.8 °F 29.9 in South 11 mph 6 mph 29% 0.000 in 909.00 W/m2
14:39 83.6 °F 48.0 °F 29.9 in SSE 6 mph 10 mph 29% 0.000 in 909.00 W/m2
14:44 83.6 °F 48.0 °F 29.9 in SSE 11 mph 9 mph 29% 0.000 in 886.00 W/m2
14:49 83.4 °F 48.6 °F 29.9 in South 12 mph 10 mph 30% 0.000 in 868.00 W/m2
14:54 83.3 °F 47.7 °F 29.9 in South 13 mph 13 mph 29% 0.000 in 861.00 W/m2
14:59 83.3 °F 47.7 °F 29.9 in SE 13 mph 13 mph 29% 0.000 in 849.00 W/m2
15:04 83.4 °F 47.8 °F 29.9 in ESE 6 mph 6 mph 29% 0.000 in 838.00 W/m2
15:09 83.5 °F 47.9 °F 29.9 in South 7 mph 6 mph 29% 0.000 in 826.00 W/m2
15:14 83.6 °F 48.9 °F 29.9 in SE 7 mph 7 mph 30% 0.000 in 821.00 W/m2
15:19 83.7 °F 48.9 °F 29.9 in ENE 9 mph 6 mph 30% 0.000 in 803.00 W/m2
15:24 84.0 °F 48.3 °F 29.9 in ESE 9 mph 9 mph 29% 0.000 in 782.00 W/m2
15:29 84.0 °F 48.3 °F 29.9 in SE 13 mph 9 mph 29% 0.000 in 779.00 W/m2
15:34 84.2 °F 48.4 °F 29.9 in SSE 9 mph 13 mph 29% 0.000 in 768.00 W/m2
15:39 84.4 °F 49.5 °F 29.9 in NE 9 mph 9 mph 30% 0.000 in 749.00 W/m2
15:44 84.4 °F 48.7 °F 29.9 in South 11 mph 11 mph 29% 0.000 in 745.00 W/m2
15:49 84.5 °F 47.8 °F 29.9 in SSE 7 mph 10 mph 28% 0.000 in 726.00 W/m2
15:54 84.5 °F 48.8 °F 29.9 in SE 18 mph 11 mph 29% 0.000 in 717.00 W/m2
15:59 84.3 °F 49.5 °F 29.9 in South 13 mph 17 mph 30% 0.000 in 707.00 W/m2
16:04 84.2 °F 48.4 °F 29.9 in ESE 7 mph 13 mph 29% 0.000 in 693.00 W/m2
16:09 84.2 °F 48.5 °F 29.9 in North 9 mph 7 mph 29% 0.000 in 679.00 W/m2
16:14 84.2 °F 48.5 °F 29.9 in SE 9 mph 9 mph 29% 0.000 in 659.00 W/m2
16:19 84.3 °F 48.6 °F 29.9 in NE 4 mph 6 mph 29% 0.000 in 645.00 W/m2
16:24 84.3 °F 49.5 °F 29.9 in ENE 7 mph 6 mph 30% 0.000 in 622.00 W/m2
16:29 84.5 °F 49.6 °F 29.9 in South 7 mph 7 mph 30% 0.000 in 617.00 W/m2
16:34 84.6 °F 48.8 °F 29.9 in South 9 mph 7 mph 29% 0.000 in 603.00 W/m2
El Dorado Weather
Compliments of Weather Underground - 2.5 mb